{"data":{"norad_id":64125,"intl_designator":"2025-111C","name":"STARLINK-11725 [DTC]","alt_names":[],"object_type":"PAYLOAD","status":"ACTIVE","operator":null,"country":"US","launch_date":"2025-05-24","launch_site_code":"AFETR","launch_vehicle":null,"mission":null,"orbit_class":"UNKNOWN","rcs_meters":null,"size_class":null,"mass_kg":null,"dimensions":null,"purposes":["comms"],"wikipedia_slug":null,"has_3d_model":false,"image_url":null,"decayed_at":null,"tle_current":{"epoch":"2026-05-25T03:39:25.512768Z","epoch_age_seconds":72404,"freshness":"FRESH","line1":"1 64125U 25111C   26145.15237862  .00205011  00000+0  15585-2 0  9994","line2":"2 64125  43.0003 233.0532 0001070 274.5470  85.5275 15.70894986 58669","mean_motion":15.70894986,"eccentricity":0.000107,"inclination_deg":43.0003,"raan_deg":233.0532,"arg_perigee_deg":274.547,"mean_anomaly_deg":85.5275,"bstar":0.0015585,"rev_number":5866,"period_min":91.667489732506,"perigee_km":355.61731705908,"apogee_km":357.05849468894,"semimajor_km":6734.474905874,"source":"CELESTRAK","updated_at":"2026-05-25T13:38:20.271091Z"}}}